Theta_e
305 305 304 304 304 303 302 301 303 303 303 302 301 301 301 302 303 301 300 300 298 297 296 296 295 296 295 295 296 297 296 298 298 299 298 295 293 292 293 292 291 289 288
302 301 300 300 299 298 298 298 298 297 297 297 296 296 296 296 296 296 295 295 295 294 294 293 293 293 292 292 292 291 292 292 293 291 292 292 291 290 290 289 289 289 287
299 298 297 296 296 296 295 295 295 294 293 293 292 292 292 292 293 294 294 293 293 292 292 291 291 291 290 290 289 289 289 290 289 289 287 288 289 288 287 286 286 285 287
295 295 293 293 292 292 292 292 292 292 291 290 291 291 291 291 291 291 292 291 291 290 290 289 289 289 289 289 288 287 288 287 287 286 285 284 286 287 285 284 284 284 283
291 291 290 291 291 290 290 290 290 290 289 289 289 290 290 290 291 290 290 289 289 288 287 287 286 284 288 289 288 286 286 286 285 286 285 286 286 284 283 284 282 282 282
288 288 288 289 289 289 289 289 289 289 288 288 288 288 289 290 292 291 289 287 286 285 285 286 286 285 287 290 290 290 290 288 286 286 285 284 284 284 283 282 281 280 278
287 287 288 288 287 287 287 287 287 287 287 287 287 288 288 289 291 289 288 286 285 284 284 284 285 285 284 285 288 288 287 290 289 287 284 284 282 282 282 281 281 279 278
284 285 285 286 286 286 286 286 286 286 285 285 285 285 286 288 290 289 287 284 284 284 285 284 284 284 286 285 284 284 284 285 286 286 285 284 283 281 280 280 279 278 278
283 283 284 285 285 285 284 284 284 284 283 283 283 283 284 285 289 288 286 284 283 283 283 284 284 284 285 287 283 283 282 284 288 286 285 284 282 282 281 278 276 275 270
281 282 282 283 283 282 282 282 282 283 283 282 283 283 282 283 288 288 285 283 283 283 283 284 284 283 284 284 283 283 281 282 283 282 279 278 278 278 278 277 277 274 272
281 282 282 282 282 282 282 282 282 282 282 282 282 282 282 284 285 287 287 283 283 283 283 283 283 284 283 283 282 282 281 281 280 278 277 276 275 275 275 275 277 275 271
279 279 279 279 281 281 279 280 279 280 278 277 279 281 282 283 284 285 285 286 285 283 283 283 283 283 282 281 280 281 280 277 274 272 271 271 271 270 271 272 273 273 273
275 275 275 277 278 277 278 278 276 276 275 276 276 279 279 280 281 283 283 284 284 283 283 284 282 280 278 277 278 278 274 272 270 266 266 267 268 268 268 266 266 265 263
272 272 273 273 273 274 276 276 274 273 273 275 274 275 279 279 281 282 282 281 282 282 285 281 279 277 276 272 270 270 270 270 269 265 263 262 262 262 261 263 259 259 256
269 270 270 271 269 270 272 272 275 275 275 270 269 271 276 276 281 283 282 281 281 282 281 279 277 273 265 265 263 264 263 263 261 259 257 257 258 258 258 257 253 252 253
267 268 268 268 268 269 269 271 278 282 284 284 283 277 276 282 283 283 282 282 281 282 278 276 273 266 261 259 258 258 258 258 257 256 254 255 254 255 254 253 251 250 252
262 265 265 266 267 266 265 265 266 272 279 283 284 284 284 283 282 281 281 279 278 278 274 273 269 260 257 256 256 257 257 255 253 254 253 253 252 251 252 252 251 250 252
255 260 260 261 260 261 262 262 261 262 262 265 277 282 282 282 280 280 279 275 270 269 266 265 264 262 257 256 257 257 256 255 253 253 251 249 248 249 251 250 250 247 247
258 258 257 257 257 258 259 259 260 259 260 259 263 275 278 281 278 277 274 266 266 267 265 264 261 261 257 255 254 252 252 251 250 249 248 246 245 247 247 246 247 249 248
253 258 256 253 254 256 256 258 260 259 259 260 263 266 268 268 264 260 260 264 267 265 264 263 261 259 257 254 252 250 250 250 249 248 246 246 244 246 247 246 245 247 246
250 251 255 252 253 252 252 254 254 255 257 260 262 269 276 262 258 258 259 257 260 264 263 263 260 256 252 250 250 249 249 248 246 246 245 244 244 248 243 244 243 243 244
250 250 250 251 251 255 252 252 253 254 256 261 261 261 269 256 256 256 256 257 256 257 258 257 255 253 250 250 249 249 249 249 245 244 244 243 244 244 244 244 244 244 244
250 251 251 250 250 252 252 251 251 252 257 258 257 254 253 253 253 253 254 254 254 253 253 254 252 250 246 246 245 248 250 249 248 244 245 244 244 244 243 244 244 246 245
250 250 251 250 250 250 250 251 253 256 255 253 251 251 251 252 253 254 254 255 254 253 251 251 250 249 247 246 244 243 243 242 242 244 245 245 244 243 243 243 243 243 244
249 250 250 250 249 249 249 250 251 250 250 251 251 251 251 252 253 256 257 256 255 253 252 250 247 247 248 248 248 247 250 249 243 244 243 246 246 243 242 241 242 243 243
250 249 249 248 249 249 249 251 250 250 251 251 250 250 250 253 255 257 256 258 255 253 252 249 248 248 248 247 248 253 258 256 248 248 245 247 247 243 242 242 242 241 241
Wind_Speed
12 12 14 10 10 9 8 10 8 10 10 10 8 9 9 9 8 7 7 6 9 7 6 7 7 5 5 5 5 5 4 3 2 2 3 4 4 6 6 6 5 7 5
12 13 11 11 9 8 9 10 10 10 10 10 8 9 8 8 7 8 8 6 9 10 7 8 7 5 6 5 4 5 4 4 2 1 1 3 5 6 5 6 6 6 4
13 9 11 11 10 9 10 9 10 9 10 10 9 10 9 8 9 8 8 8 9 9 8 8 6 5 5 4 4 4 3 2 3 3 3 3 3 5 3 2 3 4 4
11 10 11 10 9 8 9 9 9 8 9 8 8 9 10 8 8 7 8 9 8 8 7 6 6 6 5 5 5 5 4 4 3 3 3 3 4 3 3 5 8 3 5
12 12 11 9 8 8 9 8 8 9 8 7 9 10 9 9 6 6 7 7 7 7 7 6 7 6 10 10 3 5 5 4 4 6 5 3 4 3 5 4 2 4 2
11 11 8 9 9 8 8 8 7 7 7 8 9 8 8 6 13 13 8 7 7 7 6 7 6 7 8 13 15 14 9 6 7 5 3 3 4 3 3 3 4 6 4
11 10 9 9 8 7 6 6 7 7 5 7 8 8 8 7 13 14 12 7 7 7 7 6 6 5 5 5 10 11 10 12 10 4 5 4 4 6 5 5 7 3 3
9 8 7 5 6 6 7 7 6 4 6 5 7 7 6 6 11 11 11 6 6 6 6 5 5 6 7 5 5 6 6 6 6 6 8 6 6 5 5 4 3 4 2
10 9 8 7 7 7 7 6 5 5 5 6 5 6 6 7 11 8 6 5 5 6 5 7 7 8 12 12 6 6 5 6 13 15 14 13 12 15 12 4 6 6 3
10 7 6 7 7 7 6 6 5 5 5 4 5 5 6 5 11 11 6 3 4 4 5 6 11 8 10 10 5 4 4 4 4 5 5 8 10 9 13 8 5 5 3
9 8 8 8 7 6 5 3 3 3 3 3 4 4 5 6 6 9 8 3 3 2 2 3 3 11 11 10 9 5 4 2 5 5 4 5 5 6 5 5 6 5 3
8 6 7 6 5 4 5 4 4 3 3 2 3 3 3 4 6 7 7 5 2 1 2 2 3 9 10 10 7 9 8 7 3 4 4 4 4 4 5 5 6 5 4
5 6 6 6 5 5 4 4 3 3 3 2 1 1 2 1 2 5 7 7 5 1 1 7 9 9 8 7 11 11 7 4 3 4 2 2 2 3 4 3 3 4 3
5 6 6 6 7 6 4 2 1 1 2 1 1 2 2 1 2 0 1 2 7 5 5 5 9 10 11 7 5 7 5 4 3 3 2 2 3 3 3 3 3 4 3
4 5 5 4 4 4 3 2 2 2 2 2 2 2 1 1 2 3 1 0 0 3 2 2 2 3 3 4 4 5 5 5 5 3 3 2 3 3 3 3 3 3 3
3 3 3 3 4 5 5 6 6 6 6 1 4 3 2 2 8 7 6 6 9 7 1 1 2 2 2 2 2 3 3 4 3 3 2 2 2 3 2 3 2 3 3
2 4 4 5 4 4 3 2 4 7 7 7 3 6 5 6 6 7 6 6 9 7 1 2 2 2 1 1 2 2 2 2 2 2 2 2 1 3 3 3 3 3 4
4 4 3 3 3 3 2 3 1 1 3 4 6 6 3 5 7 8 5 4 3 5 3 2 2 3 1 1 1 2 2 3 3 2 3 2 3 2 3 3 4 2 3
3 2 2 2 1 2 2 2 2 3 2 2 4 4 4 10 8 10 11 3 2 3 2 3 2 2 2 2 2 2 2 1 1 1 2 2 2 2 3 3 2 4 2
2 4 2 2 2 2 3 4 4 4 3 3 2 2 3 4 3 3 3 2 3 4 2 3 2 2 3 2 2 2 2 2 2 2 1 2 2 3 3 2 3 3 3
2 3 3 1 2 2 2 3 2 2 2 2 2 2 5 3 2 2 2 2 2 3 3 3 2 2 2 2 2 2 2 1 1 0 1 2 2 3 2 2 1 1 2
1 1 2 3 3 4 3 2 2 2 2 2 3 4 8 3 3 3 3 3 2 2 2 3 2 2 2 2 3 3 2 1 0 1 2 2 2 3 2 2 3 3 3
1 2 3 2 3 3 2 3 3 3 2 2 2 3 3 3 3 3 3 2 2 2 3 3 3 2 1 1 1 3 3 3 3 4 4 3 3 3 2 2 2 3 3
1 2 2 2 2 3 3 3 2 3 3 2 3 2 2 2 2 3 3 2 2 3 2 2 2 3 2 1 0 1 1 2 2 3 5 4 4 3 3 3 2 2 2
1 2 2 2 2 2 2 2 2 2 2 2 2 1 1 2 2 2 2 2 2 2 2 2 2 2 2 2 2 2 2 5 4 4 3 5 6 5 3 3 1 2 3
2 1 1 1 1 1 0 1 2 1 1 1 1 0 0 0 1 2 1 1 1 1 2 2 2 1 1 1 1 1 4 5 4 4 4 4 4 4 3 4 4 2 2
Wind_Direction
55 50 65 38 39 31 42 40 35 55 58 58 58 66 62 64 59 74 70 75 84 83 62 69 61 53 48 39 44 37 39 42 90 7 54 24 51 32 24 39 41 35 12
67 58 48 64 39 46 52 52 36 48 53 60 60 58 50 60 58 59 75 60 66 62 52 59 49 46 53 43 46 53 45 30 57 182 342 8 55 13 30 32 22 20 9
75 74 67 50 54 48 52 56 59 56 57 50 53 56 48 41 55 57 67 66 63 59 48 50 41 47 46 38 49 55 48 41 36 57 13 4 32 29 4 347 345 354 8
67 71 68 62 60 47 48 49 50 52 57 54 51 54 49 44 49 51 62 65 63 59 57 52 46 46 47 45 53 42 47 61 48 62 53 26 25 321 18 347 354 357 347
59 56 53 49 52 59 53 49 51 52 48 45 53 48 43 45 34 51 59 64 68 66 53 49 44 39 52 55 66 42 53 66 57 60 54 32 19 3 6 342 310 316 343
56 55 49 52 52 48 52 49 48 54 47 52 52 51 47 47 47 49 58 64 60 58 52 41 31 31 46 73 74 69 62 68 69 68 60 48 37 1 329 334 342 349 347
48 38 39 38 44 39 45 55 47 48 46 56 56 57 52 44 54 61 58 55 54 47 43 36 35 23 37 63 68 66 56 72 72 72 91 44 39 6 337 354 357 332 322
47 43 36 41 52 45 46 43 39 36 40 39 41 42 50 44 62 69 71 70 70 62 60 45 46 32 31 53 73 68 46 32 59 64 68 63 52 22 15 359 356 326 328
27 24 18 19 34 35 34 22 25 29 36 36 33 39 47 33 45 61 73 73 70 62 57 45 44 40 30 33 47 56 48 45 74 73 64 57 46 37 35 22 25 11 331
10 7 10 16 29 28 16 16 12 28 35 32 40 38 42 39 34 41 52 58 68 56 51 48 52 38 34 38 41 43 61 28 51 59 47 45 40 33 35 33 25 30 8
357 7 11 13 15 14 5 14 4 20 48 51 65 46 48 30 23 27 35 67 82 76 65 62 44 29 26 31 39 42 49 67 60 70 64 45 36 33 26 27 36 30 19
353 9 10 2 3 0 4 359 1 23 58 47 72 38 22 13 16 12 12 27 66 76 71 75 50 54 45 36 39 45 62 74 67 63 55 39 28 18 7 20 22 38 41
354 12 12 358 359 355 0 3 6 14 32 2 67 300 299 334 28 19 6 360 348 339 127 118 90 68 63 47 50 55 48 53 56 65 43 29 20 344 350 3 355 12 15
9 4 4 7 351 356 353 4 21 13 23 11 289 220 262 261 294 147 57 9 340 354 100 92 87 72 57 51 33 37 31 31 55 57 31 350 321 12 23 350 14 357 40
8 4 4 345 333 332 333 298 351 284 190 196 231 164 181 233 275 99 34 24 347 292 39 77 63 56 35 32 19 30 26 33 44 23 22 9 4 19 4 353 30 4 76
3 354 351 346 350 7 9 339 332 2 10 297 144 144 235 145 75 43 15 35 7 335 89 126 91 70 67 30 48 28 23 25 19 20 14 16 40 37 21 358 35 55 49
20 360 359 11 359 351 337 343 358 331 351 29 77 108 106 101 73 42 53 46 23 350 47 66 91 96 92 52 50 58 47 4 355 14 32 10 30 35 42 20 359 38 8
360 342 13 333 333 305 321 326 288 313 347 324 355 22 46 108 69 49 46 61 36 32 52 81 113 119 122 103 71 68 37 26 27 5 32 23 25 72 44 30 26 23 9
338 347 326 286 320 321 326 318 24 5 353 315 331 356 16 100 75 53 51 59 95 75 74 84 101 115 103 98 74 67 75 46 336 11 11 40 16 87 56 40 6 31 29
325 325 351 6 345 338 9 17 11 10 359 342 346 328 345 42 33 17 23 31 91 93 96 101 101 103 107 108 94 86 71 36 17 38 16 48 40 65 73 50 31 30 6
296 336 344 34 25 7 32 17 337 345 354 357 339 323 41 106 103 76 72 36 65 94 100 105 109 104 102 110 108 97 99 85 64 81 55 39 36 71 62 65 51 49 34
8 330 8 26 348 24 351 320 355 360 8 32 357 3 49 56 69 64 57 41 43 58 69 116 112 117 144 145 147 130 136 145 186 128 80 65 73 73 69 56 19 31 35
64 42 28 1 27 339 352 7 30 25 28 39 31 28 31 46 54 59 69 46 56 59 40 71 104 91 60 85 153 163 148 194 207 164 126 99 80 85 82 73 27 25 32
85 77 63 24 21 2 1 350 16 45 37 41 45 35 35 42 64 61 46 39 54 45 54 67 78 107 100 86 100 120 132 147 146 146 135 118 104 97 80 79 40 34 17
98 83 71 61 24 344 333 352 29 52 42 28 8 32 30 45 63 64 68 62 59 57 49 51 66 100 113 109 88 82 116 95 117 118 102 98 103 103 95 90 91 42 25
126 118 146 128 172 236 305 14 353 354 74 50 18 20 6 93 114 89 57 77 62 42 36 21 33 77 97 80 62 142 117 117 106 114 111 101 107 87 77 91 63 57 45